| time (UTC) | temp C | wind direction | speed KPH | gust KPH | rain 1hr cm | rain 24hr cm | rain mn cm | humidity % | barometer mb |
| 20260505025030 | 14 | 233 | 3.2 | 11.3 | 0.00 | 0.00 | 0.00 | 53 | 1010.3 |
| 20260505024530 | 14 | 193 | 1.6 | 9.7 | 0.00 | 0.00 | 0.00 | 53 | 1010.3 |
| 20260505024050 | 14 | 219 | 3.2 | 9.7 | 0.00 | 0.00 | 0.00 | 53 | 1010.4 |
| 20260505023550 | 14 | 217 | 3.2 | 20.9 | 0.00 | 0.00 | 0.00 | 52 | 1010.4 |
| 20260505023029 | 14 | 208 | 3.2 | 20.9 | 0.00 | 0.00 | 0.00 | 52 | 1010.5 |
| 20260505022550 | 14 | 187 | 3.2 | 11.3 | 0.00 | 0.00 | 0.00 | 52 | 1010.5 |
| 20260505022031 | 14 | 203 | 1.6 | 9.7 | 0.00 | 0.00 | 0.00 | 51 | 1010.4 |
| 20260505021531 | 14 | 234 | 1.6 | 11.3 | 0.00 | 0.00 | 0.00 | 51 | 1010.4 |
| 20260505021031 | 15 | 254 | 1.6 | 6.4 | 0.00 | 0.00 | 0.00 | 50 | 1010.4 |
| 20260505020531 | 15 | 220 | 3.2 | 11.3 | 0.00 | 0.00 | 0.00 | 50 | 1010.3 |
| 20260505020031 | 15 | 202 | 1.6 | 6.4 | 0.00 | 0.00 | 0.00 | 50 | 1010.3 |
| 20260505015531 | 15 | 230 | 3.2 | 12.9 | 0.00 | 0.00 | 0.00 | 49 | 1010.2 |
| 20260505015050 | 15 | 247 | 3.2 | 9.7 | 0.00 | 0.00 | 0.00 | 48 | 1010.3 |
| 20260505014530 | 15 | 225 | 3.2 | 17.7 | 0.00 | 0.00 | 0.00 | 48 | 1010.3 |
| 20260505014030 | 15 | 221 | 3.2 | 17.7 | 0.00 | 0.00 | 0.00 | 49 | 1010.1 |
| 20260505013550 | 15 | 233 | 1.6 | 9.7 | 0.00 | 0.00 | 0.00 | 48 | 1010.1 |
| 20260505013030 | 15 | 235 | 4.8 | 17.7 | 0.00 | 0.00 | 0.00 | 47 | 1010.0 |
| 20260505012530 | 15 | 209 | 3.2 | 12.9 | 0.00 | 0.00 | 0.00 | 47 | 1010.0 |
| 20260505012029 | 16 | 229 | 3.2 | 12.9 | 0.00 | 0.00 | 0.00 | 46 | 1009.8 |
| 20260505011549 | 16 | 237 | 3.2 | 12.9 | 0.00 | 0.00 | 0.00 | 46 | 1009.8 |
| 20260505011029 | 16 | 235 | 3.2 | 14.5 | 0.00 | 0.00 | 0.00 | 45 | 1009.7 |
| 20260505010531 | 16 | 233 | 3.2 | 14.5 | 0.00 | 0.00 | 0.00 | 45 | 1009.6 |
| 20260505010031 | 16 | 240 | 1.6 | 14.5 | 0.00 | 0.00 | 0.00 | 45 | 1009.6 |
| 20260505005531 | 16 | 238 | 4.8 | 14.5 | 0.00 | 0.00 | 0.00 | 44 | 1009.3 |
| 20260505005030 | 16 | 223 | 4.8 | 25.7 | 0.00 | 0.00 | 0.00 | 44 | 1009.4 |
| 20260505004530 | 16 | 186 | 3.2 | 16.1 | 0.00 | 0.00 | 0.00 | 44 | 1009.2 |
| 20260505004030 | 16 | 207 | 3.2 | 16.1 | 0.00 | 0.00 | 0.00 | 44 | 1009.1 |
| 20260505003530 | 16 | 245 | 4.8 | 12.9 | 0.00 | 0.00 | 0.00 | 44 | 1009.0 |
| 20260505003030 | 17 | 234 | 3.2 | 16.1 | 0.00 | 0.00 | 0.00 | 43 | 1008.8 |
| 20260505002550 | 17 | 200 | 3.2 | 20.9 | 0.00 | 0.00 | 0.00 | 43 | 1008.6 |
| 20260505002030 | 17 | 230 | 4.8 | 22.5 | 0.00 | 0.00 | 0.00 | 42 | 1008.6 |
| 20260505001530 | 17 | 245 | 3.2 | 12.9 | 0.00 | 0.00 | 0.00 | 42 | 1008.5 |
| 20260505001029 | 17 | 212 | 4.8 | 14.5 | 0.00 | 0.00 | 0.00 | 42 | 1008.4 |
| 20260505000529 | 17 | 206 | 4.8 | 22.5 | 0.00 | 0.00 | 0.00 | 42 | 1008.2 |
| 20260505000029 | 17 | 255 | 4.8 | 22.5 | 0.00 | 0.00 | 0.00 | 41 | 1008.2 |
| 20260504235529 | 17 | 239 | 4.8 | 29.0 | 0.00 | 0.00 | 0.00 | 41 | 1008.0 |
| 20260504235051 | 17 | 192 | 3.2 | 29.0 | 0.00 | 0.00 | 0.00 | 41 | 1008.0 |
| 20260504234531 | 18 | 226 | 4.8 | 33.8 | 0.00 | 0.00 | 0.00 | 40 | 1007.9 |
| 20260504234031 | 18 | 236 | 4.8 | 14.5 | 0.00 | 0.00 | 0.00 | 40 | 1007.9 |
| 20260504233530 | 18 | 238 | 4.8 | 11.3 | 0.00 | 0.00 | 0.00 | 39 | 1007.7 |
| 20260504233031 | 18 | 206 | 4.8 | 16.1 | 0.00 | 0.00 | 0.00 | 38 | 1007.7 |
| 20260504232530 | 18 | 228 | 3.2 | 20.9 | 0.00 | 0.00 | 0.00 | 38 | 1007.5 |
| 20260504232050 | 18 | 240 | 4.8 | 20.9 | 0.00 | 0.00 | 0.00 | 37 | 1007.5 |
| 20260504231530 | 18 | 278 | 3.2 | 12.9 | 0.00 | 0.00 | 0.00 | 37 | 1007.4 |
| 20260504231030 | 19 | 258 | 4.8 | 17.7 | 0.00 | 0.00 | 0.00 | 36 | 1007.3 |
| 20260504230530 | 19 | 215 | 4.8 | 17.7 | 0.00 | 0.00 | 0.00 | 36 | 1007.1 |
| 20260504230029 | 19 | 241 | 4.8 | 17.7 | 0.00 | 0.00 | 0.00 | 35 | 1007.0 |
| 20260504225529 | 20 | 221 | 3.2 | 14.5 | 0.00 | 0.00 | 0.00 | 35 | 1006.9 |
| 20260504225029 | 20 | 225 | 3.2 | 20.9 | 0.00 | 0.00 | 0.00 | 34 | 1006.7 |
| 20260504224529 | 20 | 207 | 4.8 | 17.7 | 0.00 | 0.00 | 0.00 | 33 | 1006.7 |
| 20260504224031 | 20 | 252 | 6.4 | 17.7 | 0.00 | 0.00 | 0.00 | 31 | 1006.7 |
| 20260504223531 | 20 | 263 | 3.2 | 12.9 | 0.00 | 0.00 | 0.00 | 30 | 1006.6 |
| 20260504223030 | 21 | 224 | 3.2 | 14.5 | 0.00 | 0.00 | 0.00 | 30 | 1006.5 |
| 20260504222531 | 21 | 237 | 3.2 | 14.5 | 0.00 | 0.00 | 0.00 | 30 | 1006.5 |
| 20260504222030 | 21 | 228 | 3.2 | 14.5 | 0.00 | 0.00 | 0.00 | 29 | 1006.5 |
| 20260504221531 | 21 | 219 | 3.2 | 16.1 | 0.00 | 0.00 | 0.00 | 30 | 1006.6 |
| 20260504221030 | 21 | 257 | 3.2 | 9.7 | 0.00 | 0.00 | 0.00 | 29 | 1006.5 |
| 20260504220530 | 21 | 253 | 3.2 | 9.7 | 0.00 | 0.00 | 0.00 | 29 | 1006.5 |
| 20260504220030 | 21 | 229 | 3.2 | 22.5 | 0.00 | 0.00 | 0.00 | 29 | 1006.5 |
| 20260504215550 | 21 | 298 | 3.2 | 6.4 | 0.00 | 0.00 | 0.00 | 30 | 1006.6 |
| 20260504215030 | 21 | 250 | 3.2 | 6.4 | 0.00 | 0.00 | 0.00 | 30 | 1006.6 |
| 20260504214610 | 21 | 242 | 1.6 | 11.3 | 0.00 | 0.00 | 0.00 | 29 | 1006.4 |
| 20260504214029 | 21 | 199 | 3.2 | 9.7 | 0.00 | 0.00 | 0.00 | 29 | 1006.6 |
| 20260504213529 | 21 | 183 | 1.6 | 6.4 | 0.00 | 0.00 | 0.00 | 28 | 1006.6 |
| 20260504213029 | 21 | 261 | 3.2 | 6.4 | 0.00 | 0.00 | 0.00 | 29 | 1006.7 |
| 20260504212551 | 21 | 280 | 3.2 | 16.1 | 0.00 | 0.00 | 0.00 | 28 | 1006.6 |
| 20260504212030 | 21 | 133 | 3.2 | 9.7 | 0.00 | 0.00 | 0.00 | 29 | 1006.5 |
| 20260504211531 | 21 | 322 | 1.6 | 6.4 | 0.00 | 0.00 | 0.00 | 28 | 1006.5 |
| 20260504211030 | 21 | 236 | 3.2 | 9.7 | 0.00 | 0.00 | 0.00 | 28 | 1006.6 |
| 20260504210530 | 21 | 316 | 3.2 | 11.3 | 0.00 | 0.00 | 0.00 | 27 | 1006.6 |
| 20260504210030 | 21 | 219 | 4.8 | 12.9 | 0.00 | 0.00 | 0.00 | 29 | 1006.7 |
| 20260504205530 | 21 | 19 | 4.8 | 20.9 | 0.00 | 0.00 | 0.00 | 28 | 1006.6 |
| 20260504205030 | 21 | 288 | 4.8 | 14.5 | 0.00 | 0.00 | 0.00 | 28 | 1006.5 |
| 20260504204530 | 21 | 139 | 3.2 | 16.1 | 0.00 | 0.00 | 0.00 | 28 | 1006.6 |
| 20260504204030 | 22 | 250 | 1.6 | 12.9 | 0.00 | 0.00 | 0.00 | 27 | 1006.6 |
| 20260504203529 | 22 | 206 | 3.2 | 16.1 | 0.00 | 0.00 | 0.00 | 28 | 1006.5 |
| 20260504203029 | 22 | 217 | 1.6 | 9.7 | 0.00 | 0.00 | 0.00 | 28 | 1006.6 |
| 20260504202530 | 21 | 211 | 1.6 | 20.9 | 0.00 | 0.00 | 0.00 | 28 | 1006.6 |
| 20260504202030 | 21 | 250 | 3.2 | 20.9 | 0.00 | 0.00 | 0.00 | 26 | 1006.7 |
| 20260504201530 | 22 | 341 | 4.8 | 25.7 | 0.00 | 0.00 | 0.00 | 26 | 1006.8 |
| 20260504201110 | 22 | 181 | 6.4 | 25.7 | 0.00 | 0.00 | 0.00 | 26 | 1006.7 |
| 20260504200550 | 22 | 324 | 3.2 | 16.1 | 0.00 | 0.00 | 0.00 | 26 | 1006.8 |
| 20260504200029 | 22 | 290 | 4.8 | 16.1 | 0.00 | 0.00 | 0.00 | 28 | 1006.8 |
| 20260504195529 | 22 | 267 | 3.2 | 11.3 | 0.00 | 0.00 | 0.00 | 27 | 1006.7 |
| 20260504195029 | 22 | 278 | 3.2 | 11.3 | 0.00 | 0.00 | 0.00 | 27 | 1006.7 |
| 20260504194529 | 22 | 250 | 3.2 | 11.3 | 0.00 | 0.00 | 0.00 | 26 | 1006.9 |
| 20260504194029 | 22 | 285 | 4.8 | 12.9 | 0.00 | 0.00 | 0.00 | 26 | 1006.9 |
| 20260504193549 | 22 | 359 | 4.8 | 11.3 | 0.00 | 0.00 | 0.00 | 27 | 1006.8 |
| 20260504193030 | 22 | 268 | 4.8 | 12.9 | 0.00 | 0.00 | 0.00 | 26 | 1006.8 |
| 20260504192530 | 22 | 294 | 4.8 | 16.1 | 0.00 | 0.00 | 0.00 | 25 | 1006.8 |
| 20260504192050 | 22 | 263 | 4.8 | 16.1 | 0.00 | 0.00 | 0.00 | 26 | 1006.7 |
| 20260504191530 | 22 | 245 | 3.2 | 17.7 | 0.00 | 0.00 | 0.00 | 26 | 1006.9 |
| 20260504191029 | 22 | 332 | 3.2 | 17.7 | 0.00 | 0.00 | 0.00 | 26 | 1006.9 |
| 20260504190529 | 22 | 277 | 3.2 | 11.3 | 0.00 | 0.00 | 0.00 | 27 | 1007.0 |
| 20260504190032 | 22 | 210 | 4.8 | 14.5 | 0.00 | 0.00 | 0.00 | 26 | 1007.0 |
| 20260504185530 | 22 | 260 | 4.8 | 11.3 | 0.00 | 0.00 | 0.00 | 26 | 1007.2 |
| 20260504185110 | 22 | 308 | 3.2 | 20.9 | 0.00 | 0.00 | 0.00 | 27 | 1007.1 |
| 20260504184529 | 21 | 316 | 4.8 | 20.9 | 0.00 | 0.00 | 0.00 | 27 | 1007.1 |
| 20260504184029 | 22 | 21 | 4.8 | 16.1 | 0.00 | 0.00 | 0.00 | 26 | 1007.2 |
| 20260504183529 | 22 | 263 | 4.8 | 17.7 | 0.00 | 0.00 | 0.00 | 27 | 1007.2 |
| 20260504183049 | 21 | 215 | 4.8 | 17.7 | 0.00 | 0.00 | 0.00 | 28 | 1007.2 |
| 20260504182530 | 21 | 240 | 6.4 | 17.7 | 0.00 | 0.00 | 0.00 | 27 | 1007.3 |
| 20260504182050 | 21 | 287 | 4.8 | 14.5 | 0.00 | 0.00 | 0.00 | 28 | 1007.3 |
| 20260504181534 | 21 | 266 | 6.4 | 16.1 | 0.00 | 0.00 | 0.00 | 27 | 1007.4 |
| 20260504181029 | 21 | 264 | 4.8 | 24.1 | 0.00 | 0.00 | 0.00 | 29 | 1007.3 |
| 20260504180529 | 21 | 221 | 6.4 | 24.1 | 0.00 | 0.00 | 0.00 | 28 | 1007.4 |
| 20260504180029 | 21 | 253 | 4.8 | 20.9 | 0.00 | 0.00 | 0.00 | 28 | 1007.3 |
| 20260504175530 | 21 | 188 | 3.2 | 17.7 | 0.00 | 0.00 | 0.00 | 29 | 1007.4 |
| 20260504175029 | 21 | 242 | 4.8 | 9.7 | 0.00 | 0.00 | 0.00 | 28 | 1007.5 |
| 20260504174531 | 21 | 239 | 4.8 | 12.9 | 0.00 | 0.00 | 0.00 | 28 | 1007.7 |
| 20260504174031 | 21 | 318 | 4.8 | 12.9 | 0.00 | 0.00 | 0.00 | 28 | 1007.7 |
| 20260504173611 | 21 | 205 | 3.2 | 12.9 | 0.00 | 0.00 | 0.00 | 28 | 1007.6 |
| 20260504173030 | 21 | 226 | 4.8 | 12.9 | 0.00 | 0.00 | 0.00 | 30 | 1007.7 |
| 20260504172531 | 21 | 262 | 4.8 | 17.7 | 0.00 | 0.00 | 0.00 | 28 | 1007.9 |
| 20260504172030 | 21 | 250 | 4.8 | 17.7 | 0.00 | 0.00 | 0.00 | 29 | 1007.6 |
| 20260504171610 | 21 | 216 | 4.8 | 14.5 | 0.00 | 0.00 | 0.00 | 29 | 1007.7 |
| 20260504171030 | 21 | 20 | 3.2 | 20.9 | 0.00 | 0.00 | 0.00 | 28 | 1007.6 |
| 20260504170530 | 20 | 223 | 6.4 | 20.9 | 0.00 | 0.00 | 0.00 | 29 | 1007.7 |
| 20260504151030 | 20 | 315 | 3.2 | 12.9 | 0.00 | 0.00 | 0.00 | 33 | 1008.9 |
| 20260504150529 | 19 | 211 | 3.2 | 12.9 | 0.00 | 0.00 | 0.00 | 33 | 1009.0 |
| 20260504141030 | 17 | 302 | 3.2 | 9.7 | 0.00 | 0.00 | 0.00 | 38 | 1009.5 |
| 20260504140529 | 17 | 313 | 3.2 | 6.4 | 0.00 | 0.00 | 0.00 | 37 | 1009.6 |
| 20260504130530 | 15 | 239 | 1.6 | 6.4 | 0.00 | 0.00 | 0.00 | 40 | 1010.4 |
| 20260504110530 | 10 | 218 | 1.6 | 6.4 | 0.00 | 0.00 | 0.00 | 50 | 1010.7 |
| 20260504100530 | 6 | 0.0 | 0.0 | 0.00 | 0.00 | 0.00 | 71 | 1010.6 | |
| 20260504081531 | 6 | 0.0 | 0.0 | 0.00 | 0.00 | 0.00 | 71 | 1010.4 | |
| 20260504081030 | 6 | 0.0 | 0.0 | 0.00 | 0.00 | 0.00 | 70 | 1010.5 | |
| 20260504080530 | 6 | 0.0 | 0.0 | 0.00 | 0.00 | 0.00 | 72 | 1010.5 | |
| 20260504070111 | 6 | 0.0 | 0.0 | 0.00 | 0.00 | 0.00 | 69 | 1010.4 | |
| 20260504050530 | 2 | 0.0 | 0.0 | 0.00 | 0.00 | 0.00 | 78 | 1010.4 | |
| 20260504045531 | 2 | 0.0 | 0.0 | 0.00 | 0.00 | 0.00 | 78 | 1010.4 | |
| 20260504045051 | 2 | 0.0 | 0.0 | 0.00 | 0.00 | 0.00 | 78 | 1010.5 | |
| 20260504044531 | 2 | 0.0 | 0.0 | 0.00 | 0.00 | 0.00 | 80 | 1010.5 | |
| 20260504044030 | 1 | 0.0 | 0.0 | 0.00 | 0.00 | 0.00 | 82 | 1010.4 | |
| 20260504043530 | 1 | 0.0 | 0.0 | 0.00 | 0.00 | 0.00 | 83 | 1010.4 | |
| 20260504043030 | 1 | 0.0 | 0.0 | 0.00 | 0.00 | 0.00 | 83 | 1010.3 | |
| 20260504042530 | 1 | 0.0 | 0.0 | 0.00 | 0.00 | 0.00 | 82 | 1010.5 | |
| 20260504042052 | 1 | 0.0 | 0.0 | 0.00 | 0.00 | 0.00 | 82 | 1010.4 | |
| 20260504041530 | 1 | 0.0 | 0.0 | 0.00 | 0.00 | 0.00 | 82 | 1010.3 | |
| 20260504041030 | 1 | 0.0 | 0.0 | 0.00 | 0.00 | 0.00 | 83 | 1010.3 | |
| 20260504040530 | 1 | 0.0 | 0.0 | 0.00 | 0.00 | 0.00 | 83 | 1010.2 | |
| 20260504040030 | 1 | 0.0 | 0.0 | 0.00 | 0.00 | 0.00 | 83 | 1010.3 | |
| 20260504035531 | 1 | 0.0 | 0.0 | 0.00 | 0.00 | 0.00 | 82 | 1010.2 | |
| 20260504035031 | 1 | 0.0 | 0.0 | 0.00 | 0.00 | 0.00 | 83 | 1010.2 | |
| 20260504034531 | 1 | 0.0 | 0.0 | 0.00 | 0.00 | 0.00 | 84 | 1010.0 | |
| 20260504034030 | 1 | 0.0 | 0.0 | 0.00 | 0.00 | 0.00 | 82 | 1010.0 | |
| 20260504033530 | 1 | 0.0 | 0.0 | 0.00 | 0.00 | 0.00 | 82 | 1010.1 | |
| 20260504033051 | 2 | 0.0 | 0.0 | 0.00 | 0.00 | 0.00 | 82 | 1010.0 | |
| 20260504032530 | 2 | 0.0 | 0.0 | 0.00 | 0.00 | 0.00 | 83 | 1010.0 | |
| 20260504032030 | 2 | 0.0 | 0.0 | 0.00 | 0.00 | 0.00 | 84 | 1010.2 | |
| 20260504031530 | 2 | 0.0 | 0.0 | 0.00 | 0.00 | 0.00 | 84 | 1010.1 | |
| 20260504031029 | 2 | 0.0 | 0.0 | 0.00 | 0.00 | 0.00 | 84 | 1010.1 | |
| 20260504030529 | 2 | 0.0 | 0.0 | 0.00 | 0.00 | 0.00 | 82 | 1010.0 | |
| 20260504030029 | 2 | 0.0 | 0.0 | 0.00 | 0.00 | 0.00 | 82 | 1010.0 | |
| 20260504025552 | 2 | 0.0 | 0.0 | 0.00 | 0.00 | 0.00 | 81 | 1010.0 |